YAOGAN 2 DEB

基本信息
目录编号:
38262
目录名称:
YAOGAN 2 DEB
国际标识:
2007-019B
轨道中心:
EARTH
物体状态:
在轨
发射日期:
2007-05-25 UTC
轨道信息
数据来源: 国际轨道数据
星历时间: 2026-09-09T08:08:09+0800
半长轴: 7102.477km
偏心率: 0.0150351
轨道倾角: 97.837°
近地点辐角: 74.812°
升交点赤经: 156.954°
平近点角: 300.254°
近地点: 617.553km
远地点: 831.127km
周期: 99.283分钟
每日圈数: 14.504009
详细信息
发射场:
JSC
轨道高度:
LEO
数据来源:
AOE Integration Group
参考系:
TEME
时间系统:
UTC
历元类型:
SGP4
2D轨道图
3D轨道图
轨道高度分析图
轨道倾角分析图
轨道综合分析图
查看轨道综合分析图